CWLY

Lytton Airport

Lytton, Canada
Issued Wind Visibility Ceiling Temperature Dew Point Humidity Barometer
Sep-26
01:00 UTC
200°
12 KTS
Gust 23 KTS
9 miles   19° C
66° F
10° C
50° F
56% 30" Hg
1016 hPa
VFR
Sep-26
00:00 UTC
190°
15 KTS
Gust 26 KTS
9 miles Broken
9,000' AGL
20° C
68° F
10° C
50° F
53% 29.99" Hg
1015.5 hPa
VFR
Sep-25
23:00 UTC
180°
14 KTS
Gust 23 KTS
9 miles Broken
8,500' AGL
20° C
68° F
10° C
50° F
53% 30" Hg
1015.8 hPa
VFR
Sep-25
22:00 UTC
200°
13 KTS
Gust 24 KTS
9 miles Broken
11,000' AGL
20° C
68° F
10° C
50° F
53% 30" Hg
1016 hPa
VFR
Sep-25
21:00 UTC
200°
16 KTS
Gust 25 KTS
9 miles Broken
8,000' AGL
19° C
66° F
10° C
50° F
56% 30" Hg
1016.1 hPa
VFR
Sep-25
20:00 UTC
190°
14 KTS
Gust 22 KTS
9 miles Overcast
8,000' AGL
18° C
64° F
10° C
50° F
60% 30.02" Hg
1016.6 hPa
VFR
Sep-25
19:00 UTC
200°
12 KTS
Gust 21 KTS
9 miles Overcast
8,000' AGL
18° C
64° F
10° C
50° F
60% 30.02" Hg
1016.6 hPa
VFR
Sep-25
18:00 UTC
190°
14 KTS
Gust 22 KTS
9 miles Broken
14,000' AGL
17° C
63° F
10° C
50° F
64% 30.02" Hg
1016.8 hPa
VFR
Sep-25
17:00 UTC
180°
12 KTS
Gust 18 KTS
9 miles Broken
8,500' AGL
16° C
61° F
10° C
50° F
68% 30.03" Hg
1017.1 hPa
VFR
Sep-25
16:00 UTC
170°
10 KTS
Gust 18 KTS
9 miles Overcast
13,000' AGL
16° C
61° F
10° C
50° F
68% 30.02" Hg
1016.8 hPa
VFR
Sep-25
15:00 UTC
180°
12 KTS
Gust 17 KTS
9 miles Broken
14,000' AGL
15° C
59° F
10° C
50° F
72% 30.02" Hg
1016.7 hPa
VFR
Sep-25
14:00 UTC
180°
10 KTS
Gust 17 KTS
9 miles Overcast
8,500' AGL
16° C
61° F
C
48° F
63% 30.02" Hg
1016.6 hPa
VFR
Sep-25
13:00 UTC
190°
9 KTS
Gust 18 KTS
9 miles Broken
11,000' AGL
16° C
61° F
C
48° F
63% 30.01" Hg
1016.4 hPa
VFR
Sep-25
12:00 UTC
180°
9 KTS
Gust 15 KTS
9 miles Broken
9,000' AGL
17° C
63° F
C
48° F
59% 30.01" Hg
1016.4 hPa
VFR
Sep-25
11:43 UTC
180°
10 KTS
Gust 18 KTS
9 miles Overcast
11,000' AGL
17° C
63° F
C
48° F
59% 30.01" Hg
1016.3 hPa
VFR
Sep-25
11:30 UTC
180°
9 KTS
Gust 18 KTS
9 miles Overcast
9,000' AGL
17° C
63° F
C
48° F
59% 30.01" Hg
1016.3 hPa
VFR
Sep-25
11:00 UTC
190°
8 KTS
Gust 17 KTS
9 miles Broken
9,000' AGL
17° C
63° F
C
48° F
59% 30.01" Hg
1016.3 hPa
VFR
Sep-25
10:00 UTC
190°
13 KTS
Gust 19 KTS
9 miles Overcast
12,000' AGL
17° C
63° F
C
46° F
56% 30" Hg
1015.9 hPa
VFR
Sep-25
09:00 UTC
190°
14 KTS
Gust 23 KTS
9 miles   17° C
63° F
C
46° F
56% 30" Hg
1015.9 hPa
VFR
Sep-25
08:00 UTC
190°
16 KTS
Gust 25 KTS
9 miles Broken
20,000' AGL
17° C
63° F
C
46° F
56% 29.99" Hg
1015.7 hPa
VFR
Sep-25
07:00 UTC
190°
18 KTS
Gust 25 KTS
9 miles   17° C
63° F
C
46° F
56% 29.99" Hg
1015.6 hPa
VFR
Sep-25
06:00 UTC
190°
18 KTS
Gust 28 KTS
9 miles   18° C
64° F
C
46° F
52% 29.99" Hg
1015.7 hPa
VFR
Sep-25
05:00 UTC
200°
19 KTS
Gust 30 KTS
9 miles   19° C
66° F
C
46° F
49% 29.97" Hg
1015.2 hPa
VFR
Sep-25
04:00 UTC
200°
15 KTS
Gust 23 KTS
9 miles   19° C
66° F
C
46° F
49% 29.97" Hg
1015.1 hPa
VFR
Sep-25
03:00 UTC
200°
16 KTS
Gust 24 KTS
9 miles   20° C
68° F
C
45° F
43% 29.96" Hg
1014.7 hPa
VFR